TimeAEST,TemperatureF,Dew PointF,Humidity,Sea Level PressureIn,VisibilityMPH,Wind Direction,Wind SpeedMPH,Gust SpeedMPH,PrecipitationIn,Events,Conditions,WindDirDegrees,DateUTC
12:00 AM,74,56,44,30.04,,South,8.1,,,,Overcast,180,2012-10-12 14:00:00
12:00 AM,75.2,57.2,53,30.04,6.2,South,8.1,-,N/A,,Overcast,180,2012-10-12 14:00:00
12:30 AM,75.2,57.2,53,30.04,6.2,South,8.1,-,N/A,,Overcast,170,2012-10-12 14:30:00
1:00 AM,74,57,45,30.03,,South,6.9,,,,,170,2012-10-12 15:00:00
1:00 AM,75.2,57.2,53,30.01,6.2,South,6.9,-,N/A,,Overcast,170,2012-10-12 15:00:00
1:30 AM,73.4,57.2,57,30.01,6.2,SE,6.9,-,N/A,,Overcast,140,2012-10-12 15:30:00
2:00 AM,73.4,57.2,57,30.01,6.2,SE,8.1,-,N/A,,Overcast,140,2012-10-12 16:00:00
2:30 AM,73.4,59.0,61,30.01,6.2,ESE,8.1,-,N/A,,Overcast,120,2012-10-12 16:30:00
3:00 AM,73,58,50,30.00,,SE,6.9,,,,Overcast,140,2012-10-12 17:00:00
3:00 AM,73.4,59.0,61,30.01,6.2,SE,6.9,-,N/A,,Overcast,140,2012-10-12 17:00:00
3:30 AM,73.4,59.0,61,30.01,6.2,SE,8.1,-,N/A,,Overcast,140,2012-10-12 17:30:00
4:00 AM,73.4,57.2,57,30.01,6.2,SSE,10.4,-,N/A,,Mostly Cloudy,150,2012-10-12 18:00:00
4:30 AM,73.4,57.2,57,30.01,-9999.0,SSE,9.2,-,N/A,,Clear,160,2012-10-12 18:30:00
5:00 AM,73.4,59.0,61,30.01,-9999.0,SSE,10.4,-,N/A,,Clear,150,2012-10-12 19:00:00
5:30 AM,73.4,59.0,61,30.01,-9999.0,SSE,11.5,-,N/A,,Clear,150,2012-10-12 19:30:00
6:00 AM,73,59,53,30.04,19,SSE,10.4,,,,Partly Cloudy,160,2012-10-12 20:00:00
6:00 AM,73.4,59.0,61,30.04,6.2,SSE,10.4,-,N/A,,Scattered Clouds,160,2012-10-12 20:00:00
6:30 AM,73.4,59.0,61,30.04,6.2,SSE,13.8,-,N/A,,Scattered Clouds,160,2012-10-12 20:30:00
7:00 AM,74,60,52,30.06,,South,12.7,,,,,170,2012-10-12 21:00:00
7:00 AM,75.2,59.0,57,30.04,6.2,South,12.7,-,N/A,,Mostly Cloudy,170,2012-10-12 21:00:00
7:30 AM,75.2,60.8,61,30.06,6.2,SSE,13.8,-,N/A,,Mostly Cloudy,160,2012-10-12 21:30:00
8:00 AM,75.2,60.8,61,30.06,6.2,South,13.8,-,N/A,,Mostly Cloudy,170,2012-10-12 22:00:00
8:30 AM,77.0,60.8,57,30.06,6.2,SSE,12.7,-,N/A,,Mostly Cloudy,150,2012-10-12 22:30:00
9:00 AM,77,61,48,30.09,19,SSE,13.8,,,,Partly Cloudy,160,2012-10-12 23:00:00
9:00 AM,77.0,60.8,57,30.06,6.2,SSE,13.8,-,N/A,,Mostly Cloudy,160,2012-10-12 23:00:00
9:30 AM,78.8,62.6,57,30.06,6.2,SSE,15.0,-,N/A,,Mostly Cloudy,160,2012-10-12 23:30:00
10:00 AM,79,60,42,30.09,,SSE,16.1,,,,,160,2012-10-13 00:00:00
10:00 AM,78.8,60.8,54,30.06,6.2,SSE,16.1,-,N/A,,Mostly Cloudy,160,2012-10-13 00:00:00
10:30 AM,78.8,59.0,51,30.06,6.2,SSE,21.9,-,N/A,,Mostly Cloudy,150,2012-10-13 00:30:00
11:00 AM,82.4,59.0,45,30.06,6.2,SSE,19.6,-,N/A,,Scattered Clouds,150,2012-10-13 01:00:00
11:30 AM,82.4,57.2,42,30.04,6.2,SE,19.6,-,N/A,,Partly Cloudy,140,2012-10-13 01:30:00
12:00 PM,83,57,31,30.05,19,SE,16.1,,,,Partly Cloudy,130,2012-10-13 02:00:00
12:00 PM,82.4,57.2,42,30.04,6.2,SE,16.1,-,N/A,,Partly Cloudy,130,2012-10-13 02:00:00
12:30 PM,84.2,57.2,40,30.01,6.2,SE,15.0,-,N/A,,Partly Cloudy,130,2012-10-13 02:30:00
1:00 PM,83,58,32,30.01,,ESE,15.0,,,,,120,2012-10-13 03:00:00
1:00 PM,84.2,57.2,40,30.01,6.2,ESE,15.0,-,N/A,,Partly Cloudy,120,2012-10-13 03:00:00
1:30 PM,84.2,57.2,40,29.98,6.2,ESE,15.0,-,N/A,,Partly Cloudy,120,2012-10-13 03:30:00
2:00 PM,84.2,59.0,42,29.98,6.2,SE,15.0,-,N/A,,Partly Cloudy,130,2012-10-13 04:00:00
3:00 PM,84,61,36,29.98,19,ESE,18.4,,,,Partly Cloudy,120,2012-10-13 05:00:00
3:00 PM,84.2,60.8,45,29.98,6.2,ESE,18.4,-,N/A,,Partly Cloudy,120,2012-10-13 05:00:00
3:30 PM,82.4,60.8,48,29.98,6.2,SE,17.3,-,N/A,,Partly Cloudy,130,2012-10-13 05:30:00
4:00 PM,81,59,36,29.98,,SE,18.4,,,,,140,2012-10-13 06:00:00
4:00 PM,80.6,59.0,48,29.98,6.2,SE,18.4,-,N/A,,Partly Cloudy,140,2012-10-13 06:00:00
4:30 PM,80.6,60.8,51,29.98,6.2,SE,17.3,-,N/A,,Partly Cloudy,140,2012-10-13 06:30:00
5:00 PM,78.8,60.8,54,29.98,6.2,SE,20.7,-,N/A,,Partly Cloudy,130,2012-10-13 07:00:00
5:30 PM,77.0,60.8,57,29.98,6.2,SE,19.6,-,N/A,,Mostly Cloudy,130,2012-10-13 07:30:00
6:00 PM,77,62,49,30.01,,SE,15.0,,,,Overcast,140,2012-10-13 08:00:00
6:00 PM,77.0,60.8,57,30.01,6.2,SE,15.0,-,N/A,,Mostly Cloudy,140,2012-10-13 08:00:00
7:00 PM,76,62,52,30.03,,SSE,13.8,,,,,150,2012-10-13 09:00:00
7:00 PM,77.0,62.6,61,30.01,6.2,SSE,13.8,-,N/A,,Mostly Cloudy,150,2012-10-13 09:00:00
8:00 PM,77.0,62.6,61,30.04,6.2,SSE,10.4,-,N/A,,Mostly Cloudy,150,2012-10-13 10:00:00
8:30 PM,77.0,62.6,61,30.04,6.2,SE,12.7,-,N/A,,Overcast,140,2012-10-13 10:30:00
9:00 PM,76,63,54,30.07,,SSE,9.2,,,,Overcast,160,2012-10-13 11:00:00
9:00 PM,77.0,62.6,61,30.06,6.2,SSE,9.2,-,N/A,,Overcast,160,2012-10-13 11:00:00
10:00 PM,76,64,59,30.09,,SSE,12.7,,,,,150,2012-10-13 12:00:00
10:00 PM,75.2,64.4,69,30.06,6.2,SSE,12.7,-,N/A,,Overcast,150,2012-10-13 12:00:00
10:30 PM,75.2,64.4,69,30.09,6.2,SSE,13.8,-,N/A,,Overcast,150,2012-10-13 12:30:00
11:00 PM,73.4,64.4,73,30.09,6.2,SSE,16.1,-,N/A,,Overcast,150,2012-10-13 13:00:00
11:30 PM,73.4,64.4,73,30.06,6.2,SSE,11.5,-,N/A,,Overcast,160,2012-10-13 13:30:00